Weather Roundup
Issued by NWS

Home | Current Version | Previous Version | Graphics & Text | Print | Product List | Glossary On
Versions: 1 2 3 4 5 6 7 8 9 10 11 12 13 14 15 16 17 18 19 20 21 22 23 24 25 26 27 28 29 30 31 32 33 34 35 36 37 38 39 40 41 42 43 44 45 46 47 48 49 50
000
NZUS93 KARX 200810
HRRWXR

CURRENT HOURLY OBSERVATIONS ACROSS
MUCH OF THE UPPER MISSISSIPPI VALLEY
NATIONAL WEATHER SERVICE LA CROSSE WI
200 AM CST FRI JAN 20 2017


...SOUTHEAST MINNESOTA...


CITY           SKY/WX    TMP DP  RH WIND       PRES   REMARKS
ROCHESTER      CLOUDY    33  33 100 SE10      29.64S FOG     WCI  25
ROCHESTER/MAYO CLOUDY    35  35 100 E6        29.65S WCI  30
WINONA         CLOUDY    34  34 100 CALM      29.69S FOG
AUSTIN         DRIZZLE   34  32  93 SE9       29.63R WCI  26
ALBERT LEA     CLOUDY    34  34 100 SE8       29.61S FOG     WCI  27
DODGE CENTER   MIX PCPN  34  34 100 CALM      29.63S
PRESTON        NOT AVBL
OWATONNA       CLOUDY    36  34  93 E8        29.62F FOG     WCI  29
FARIBAULT      LGT RAIN  36  34  93 E5        29.64S WCI  32
$$

...ELSEWHERE IN MINNESOTA...


CITY           SKY/WX    TMP DP  RH WIND       PRES   REMARKS
MINNEAPOLIS    LGT RAIN  35  33  92 SE8       29.65F FOG     WCI  29
INTNL FALLS      N/A     33  31  92 CALM      29.60S FOG
DULUTH         CLOUDY    36  32  85 S8        29.65S WCI  30
RED WING       DRIZZLE   36  34  93 E5        29.66F WCI  32
REDWOOD FALLS  FOG       34  32  92 SE6       29.59F VSB 1/4 WCI  29
MANKATO        LGT RAIN  34  33  96 SE9       29.62S FOG     WCI  27
WORTHINGTON    CLOUDY    35  35 100 SW8       29.57S FOG     WCI  29
FAIRMONT       FOG       33  33 100 SE3       29.60R VSB 1/4
$$

...SOUTHWEST WISCONSIN...


CITY           SKY/WX    TMP DP  RH WIND       PRES   REMARKS
LA CROSSE      FOG       37  34  89 CALM      29.68S VSB 1/2
PRAIRIE DU CHI FOG       35  34  96 CALM      29.67S VSB 1/2
BOSCOBEL       FOG       37  35  92 NE3       29.68R VSB 1
LONE ROCK      CLOUDY    36  35  96 E7        29.68S FOG     WCI  30
PLATTEVILLE    CLOUDY    35  35 100 E7        29.65S VSB 1   WCI  29
FORT MC COY    CLOUDY    34  34  99 E5        29.70S WCI  30
CAMP DOUGLAS   DRIZZLE   34  32  93 E5        29.69S WCI  30
MAUSTON-NEW LI CLOUDY    34  34  98 E3        29.68F FOG
VIROQUA        CLOUDY    34  34 100 E8        29.66R VSB 1   WCI  27
WIS DELLS      FOG       34  33  98 NE7       29.68F VSB 1   WCI  28
$$

...ELSEWHERE IN WISCONSIN...


CITY           SKY/WX    TMP DP  RH WIND       PRES   REMARKS
MILWAUKEE      LGT RAIN  38  36  92 E7        29.71F FOG     WCI  33
MADISON        CLOUDY    35  34  96 E10       29.69S WCI  27
GREEN BAY      FOG       34  34 100 NE6       29.76F VSB 1/4 WCI  29
EAU CLAIRE     LGT RAIN  35  34  96 NE6       29.68F FOG     WCI  30
BLACK RVR FLS  DRIZZLE   35  35 100 NE5       29.69F WCI  31
MEDFORD        MIX PCPN  32  31  97 E3        29.69F
WAUSAU         CLOUDY    31  31 100 E6        29.71F FOG     WCI  25
WIS RAPIDS     LGT RAIN  33  33 100 E6        29.72F FOG     WCI  28
MARSHFIELD     MIX PCPN  32  31  96 E8        29.69F FOG     WCI  25
RICE LAKE      CLOUDY    35  33  92 E6        29.70S FOG     WCI  30
$$

...NORTHEAST IOWA...


CITY           SKY/WX    TMP DP  RH WIND       PRES   REMARKS
WATERLOO       CLOUDY    34  34 100 E6        29.63F FOG     WCI  29
DUBUQUE        FOG       36  36 100 NE6       29.64S VSB 1/2 WCI  31
DECORAH        CLOUDY    34  34 100 E7        29.64S FOG     WCI  28
MASON CITY     FOG       33  33 100 E10       29.63R VSB 1   WCI  25
CHARLES CITY   FOG       34  34 100 E9        29.64S VSB 3/4 WCI  26
OELWEIN        CLOUDY    34  34 100 E7        29.64S FOG     WCI  28
$$

...ELSEWHERE IN IOWA...


CITY           SKY/WX    TMP DP  RH WIND       PRES   REMARKS
DES MOINES     DRZL/FOG  37  36  96 SE3       29.61S VSB 1/2
IOWA CITY      CLOUDY    37  36  96 NE3       29.65S FOG
FORT DODGE     CLOUDY    34  34 100 E7        29.60S VSB 1/2 WCI  28
MARSHALLTOWN   FOG       35  35 100 E7        29.61S VSB 1/2 WCI  29
CEDAR RAPIDS   FOG       35  35 100 E5        29.63R VSB 3/4 WCI  31
$$

...NORTHERN ILLINOIS...


CITY           SKY/WX    TMP DP  RH WIND       PRES   REMARKS
CHICAGO-OHARE  LGT RAIN  38  37  97 NE10      29.65F FOG     WCI  31
CHICAGO-MIDWAY LGT RAIN  37  37 100 E15G25    29.65F FOG     WCI  28
MOLINE         FOG       38  36  92 NE3       29.62F VSB 1/4
ROCKFORD       DRIZZLE   38  36  92 E7        29.66S FOG     WCI  33
PEORIA         FOG       39  39 100 E6        29.61F VSB 1/2 WCI  35
$$

NOTE: "FAIR" INDICATES FEW OR NO CLOUDS BELOW 12,000 FEET WITH NO
SIGNIFICANT WEATHER AND/OR OBSTRUCTIONS TO VISIBILITY. WIND
SPEEDS ARE IN MILES-PER-HOUR.




USA.gov is the U.S. government's official web portal to all federal, state and local government web resources and services.